Wind_Speed
16 15 14 13 12 11 11 11 10 10 9 8 8 9 9 8 8 8 8 7 6 6 5 5 5 5 5 5 5 6 7 8 8 7 8 7 8 8 8 8 8 8
16 16 15 14 13 12 11 11 12 11 10 10 9 10 9 8 8 8 8 7 7 6 5 4 5 5 5 5 5 5 6 7 8 8 8 8 8 8 8 8 8 8
17 16 16 14 13 13 12 12 12 12 12 11 10 10 9 8 8 8 8 8 8 7 6 4 4 4 5 5 5 5 5 7 8 9 8 8 8 8 8 8 7 7
16 16 16 15 14 13 13 13 13 13 12 12 11 11 10 9 9 8 8 8 8 8 7 6 5 4 4 4 4 5 5 6 7 8 8 8 8 8 8 8 8 8
16 16 16 15 15 14 13 13 13 13 13 12 12 12 11 10 10 9 8 8 8 7 7 7 6 5 5 4 4 4 5 6 6 7 8 8 8 7 8 8 8 9
17 17 16 16 16 15 14 13 13 13 13 13 13 13 12 11 10 9 8 8 8 7 7 7 6 6 5 5 4 4 4 5 6 6 7 7 8 7 7 7 7 8
18 18 17 17 17 16 14 13 13 13 13 13 14 14 14 12 11 10 8 8 8 8 7 7 7 7 7 6 5 5 5 5 6 6 6 6 7 7 7 6 6 6
18 17 17 17 17 16 15 14 14 13 13 14 14 14 14 13 12 11 10 9 8 8 8 8 7 7 7 7 6 6 6 6 6 7 7 6 6 6 6 6 6 6
19 19 18 17 17 16 15 14 14 13 14 14 14 14 14 14 13 13 12 11 10 9 8 8 8 8 7 7 7 7 7 7 6 7 7 7 7 6 6 6 6 6
21 21 21 20 19 18 17 16 15 14 15 15 15 15 15 15 15 14 14 13 12 10 9 9 8 8 8 7 7 8 8 8 8 8 8 8 8 8 7 7 7 7
23 25 25 24 23 21 20 19 18 16 16 16 16 16 16 16 16 16 15 14 13 12 11 10 9 9 9 8 8 9 9 10 10 10 9 9 10 10 9 9 9 9
23 24 23 22 20 19 17 17 17 17 17 17 16 17 17 17 16 16 16 15 14 13 13 12 11 10 10 9 9 9 10 10 11 11 11 11 11 11 11 10 10 11
21 21 20 20 20 19 17 17 17 17 17 16 16 16 17 17 17 17 16 16 15 15 15 14 13 13 12 11 11 11 11 11 11 11 11 11 11 12 12 12 12 12
20 20 19 20 21 21 20 18 17 17 17 17 17 17 18 18 18 17 16 16 16 16 16 15 15 15 14 14 13 13 13 13 12 12 12 12 12 12 12 12 12 13
21 20 19 21 21 21 20 19 18 18 19 19 18 18 18 20 20 19 17 17 17 17 16 16 17 16 16 15 15 15 15 15 15 14 14 14 14 14 14 13 13 13
18 18 19 21 23 23 23 21 21 21 21 21 20 18 17 19 21 21 19 18 18 18 18 18 18 17 17 16 16 16 17 17 18 18 17 16 16 16 16 15 15 15
16 15 16 19 23 26 26 24 23 23 23 23 23 20 18 18 18 20 20 19 18 18 18 19 19 18 18 17 16 16 16 17 18 19 19 19 19 18 18 17 17 17
16 15 15 17 20 23 25 23 23 23 24 25 24 23 22 20 19 18 18 19 18 17 17 17 18 19 19 18 17 16 16 16 16 18 19 20 20 20 20 19 19 18
19 17 17 17 18 21 23 24 24 23 24 25 26 26 25 23 22 20 18 18 18 17 16 15 15 17 18 19 18 17 17 17 16 16 18 18 19 20 20 21 21 21
21 20 20 20 19 19 22 25 25 23 23 24 25 27 27 26 25 25 23 21 20 19 18 17 16 15 16 17 18 17 17 17 17 17 17 18 18 19 19 20 20 21
23 23 23 24 22 20 21 23 22 21 23 24 25 27 28 27 28 27 27 26 25 23 22 20 20 19 19 19 19 19 19 18 18 18 18 19 19 19 19 19 19 19
24 25 26 26 24 23 23 22 20 21 23 23 24 26 27 28 29 29 29 29 29 27 25 24 23 22 23 23 23 23 23 23 22 21 21 21 21 21 21 21 21 21
21 22 23 22 21 22 23 22 23 23 23 22 23 24 25 27 29 29 30 30 30 30 29 27 26 25 26 26 27 27 27 26 25 24 23 23 22 22 23 23 23 24
18 18 18 17 17 20 22 23 25 25 24 23 23 24 25 26 26 27 28 30 30 31 31 30 30 30 30 29 28 28 28 27 26 24 23 23 23 23 24 25 25 25
11 10 10 11 13 16 19 22 24 25 26 26 25 25 26 26 25 24 25 28 30 31 32 32 32 30 29 28 28 28 29 29 28 28 26 25 25 25 25 26 26 26
6 6 5 6 6 8 12 17 20 22 24 25 26 26 26 26 26 25 25 26 28 30 32 31 29 27 25 25 26 27 28 29 29 29 29 29 28 29 29 29 28 28
Wind_Direction
214 217 220 223 224 223 223 224 221 216 216 215 209 201 197 195 190 180 174 173 167 166 169 166 165 163 162 177 183 174 182 182 179 188 190 189 189 185 187 185 177 175
214 218 220 223 225 225 224 224 222 218 215 217 217 210 203 199 195 185 178 176 170 167 170 167 166 163 156 167 179 173 177 183 182 189 195 195 192 189 190 186 179 179
215 218 221 224 226 226 225 224 224 222 219 219 218 215 210 206 202 195 188 182 176 173 176 175 169 166 164 169 176 176 177 183 185 186 191 194 191 191 192 186 183 188
217 218 221 223 225 224 222 223 225 224 223 223 222 218 214 214 212 204 197 189 182 181 182 180 175 169 173 179 180 181 180 182 183 182 187 190 189 193 195 190 188 197
217 219 221 223 223 222 219 220 223 225 225 225 226 224 219 218 218 212 207 199 191 189 186 184 183 176 178 188 189 189 186 182 181 183 186 187 189 195 202 198 188 192
215 215 217 220 221 219 217 217 220 224 226 227 230 232 228 221 220 219 217 212 204 198 191 188 187 182 183 191 194 197 193 185 186 189 186 186 194 199 204 207 198 194
218 217 217 219 221 218 214 214 218 221 225 228 230 235 236 230 223 221 221 220 214 207 201 198 193 188 190 195 199 204 200 190 190 194 191 190 197 201 201 207 214 215
222 221 219 221 224 223 216 211 213 216 222 228 230 233 238 238 234 227 224 222 222 219 212 208 204 201 199 199 204 211 210 204 197 195 197 197 198 203 205 210 220 226
222 223 221 219 223 228 227 219 215 216 220 226 231 232 234 238 241 239 234 228 226 227 221 214 214 215 214 211 211 213 216 216 211 203 203 206 208 210 213 215 222 227
217 223 221 216 216 218 221 221 219 220 224 227 230 233 234 234 236 240 242 238 233 232 230 224 221 222 225 227 222 220 221 222 221 216 211 211 215 219 222 223 225 230
213 220 219 216 216 216 213 213 214 216 223 230 234 235 235 236 235 235 239 242 241 241 239 236 234 231 231 234 232 227 226 228 229 226 220 217 217 220 225 228 230 233
219 224 227 226 229 231 226 220 217 216 216 221 232 240 239 238 237 236 237 239 241 245 245 243 241 240 237 237 238 234 232 234 236 234 230 225 223 223 225 228 230 233
228 231 238 238 236 237 234 226 223 225 224 217 219 232 241 242 239 237 238 239 239 241 245 247 245 244 243 242 243 242 241 242 244 244 242 237 233 230 228 230 231 233
230 232 238 240 238 239 241 235 226 228 234 229 218 218 229 240 242 238 236 237 239 239 240 244 246 247 248 248 249 252 252 252 252 253 253 250 247 242 238 236 235 235
234 236 238 237 236 239 243 241 232 227 229 232 228 219 219 230 238 238 234 231 234 238 240 241 243 246 250 252 255 258 261 263 262 260 259 257 255 252 248 246 244 243
242 246 246 241 237 237 239 238 235 231 228 229 235 233 225 225 231 236 236 230 228 232 237 241 243 244 247 251 255 259 263 267 269 269 267 263 260 257 254 252 252 252
245 252 255 248 240 238 239 237 233 231 229 230 237 241 236 231 231 234 237 237 234 231 231 236 241 244 246 247 250 255 260 266 271 274 274 272 268 265 261 258 256 255
242 247 253 250 242 237 235 232 231 232 232 233 238 241 240 238 236 235 239 243 244 243 239 236 238 241 244 246 247 249 252 258 265 270 274 276 276 273 270 267 264 261
240 240 244 245 243 240 236 230 228 232 233 234 236 239 241 242 241 239 241 243 247 251 252 251 247 245 245 246 246 246 246 249 255 260 265 270 274 275 274 272 269 268
238 236 240 244 243 244 244 237 230 229 235 238 238 239 242 246 246 245 245 246 248 248 249 253 256 256 254 252 251 249 246 245 246 250 253 258 263 269 272 273 273 272
241 236 237 240 241 243 246 243 237 234 237 240 241 241 243 247 249 250 250 251 253 251 248 248 251 256 261 262 262 262 260 255 249 246 247 250 254 259 264 268 271 270
250 248 243 240 240 245 247 246 245 245 243 243 244 243 244 247 249 251 253 254 255 255 254 252 250 251 254 258 262 264 265 264 262 257 253 251 252 255 258 261 264 266
255 258 256 250 247 248 248 246 247 247 247 248 250 249 248 248 249 251 254 255 255 257 260 261 258 253 251 253 258 262 262 263 263 262 260 257 254 254 255 257 259 263
257 261 264 260 251 246 246 247 246 244 243 247 253 255 254 254 253 254 254 254 254 256 260 263 262 260 257 257 260 264 265 264 262 260 260 260 257 254 253 253 254 256
248 253 258 254 246 243 244 245 244 242 241 242 246 251 255 257 258 258 256 254 254 256 258 261 263 266 267 266 266 267 268 268 266 264 264 265 266 265 262 258 255 254
226 230 235 237 239 234 233 237 240 241 240 240 241 244 249 253 256 258 258 257 257 258 259 262 266 269 271 270 268 266 265 266 265 264 265 268 269 270 268 264 261 258
Height
3238 3240 3241 3242 3244 3245 3245 3246 3247 3248 3248 3249 3250 3250 3251 3252 3252 3253 3253 3253 3254 3255 3256 3256 3257 3257 3258 3258 3259 3259 3260 3260 3261 3261 3262 3263 3263 3264 3265 3265 3266 3266
3237 3238 3239 3241 3242 3244 3245 3246 3246 3247 3248 3249 3250 3250 3251 3251 3252 3253 3253 3253 3254 3255 3255 3256 3257 3257 3258 3258 3259 3259 3260 3260 3261 3261 3262 3263 3263 3264 3264 3265 3265 3266
3235 3236 3238 3239 3241 3242 3244 3245 3246 3247 3248 3248 3249 3250 3250 3251 3252 3253 3253 3253 3253 3254 3255 3256 3257 3257 3258 3258 3259 3259 3260 3260 3261 3261 3262 3263 3263 3264 3264 3265 3265 3266
3234 3235 3236 3238 3239 3241 3242 3244 3245 3246 3247 3248 3249 3249 3250 3251 3251 3252 3253 3253 3253 3254 3255 3256 3257 3257 3258 3258 3259 3259 3260 3260 3261 3261 3262 3262 3263 3264 3264 3264 3264 3265
3232 3233 3235 3236 3238 3239 3241 3243 3244 3245 3247 3248 3248 3249 3250 3250 3251 3252 3253 3253 3253 3254 3254 3255 3256 3257 3257 3258 3258 3259 3259 3260 3260 3261 3261 3262 3263 3263 3264 3264 3264 3265
3230 3232 3233 3235 3236 3237 3239 3241 3243 3244 3246 3247 3248 3249 3249 3250 3251 3252 3252 3253 3253 3254 3254 3254 3255 3256 3257 3258 3258 3259 3259 3260 3260 3261 3261 3262 3262 3263 3263 3264 3264 3265
3228 3230 3231 3233 3235 3236 3238 3240 3242 3243 3245 3246 3247 3248 3249 3250 3250 3251 3252 3253 3253 3254 3254 3254 3255 3255 3256 3257 3258 3259 3259 3260 3260 3261 3261 3262 3262 3263 3263 3263 3264 3265
3227 3228 3230 3231 3233 3235 3237 3238 3240 3242 3244 3245 3246 3248 3249 3249 3250 3251 3251 3252 3253 3253 3254 3254 3255 3255 3256 3256 3257 3258 3259 3259 3260 3260 3261 3261 3262 3262 3262 3263 3264 3264
3224 3226 3228 3229 3232 3234 3237 3238 3240 3241 3243 3244 3245 3247 3247 3248 3249 3250 3250 3251 3252 3253 3253 3254 3255 3255 3256 3256 3257 3258 3258 3259 3259 3260 3260 3261 3261 3262 3262 3262 3263 3263
3220 3223 3224 3225 3227 3230 3233 3236 3238 3240 3242 3243 3244 3245 3246 3247 3248 3249 3249 3250 3251 3252 3252 3253 3254 3255 3255 3256 3256 3257 3258 3258 3259 3259 3259 3260 3261 3261 3261 3262 3262 3263
3216 3218 3219 3220 3222 3225 3230 3233 3235 3236 3239 3241 3243 3244 3245 3246 3246 3247 3248 3249 3250 3251 3251 3252 3253 3254 3254 3255 3255 3256 3257 3257 3258 3258 3259 3259 3259 3260 3260 3261 3262 3262
3216 3218 3220 3222 3225 3228 3232 3235 3235 3235 3235 3237 3240 3242 3243 3244 3245 3246 3247 3248 3249 3250 3250 3251 3252 3253 3253 3254 3254 3255 3255 3256 3257 3257 3258 3258 3258 3259 3259 3260 3260 3261
3217 3219 3221 3223 3225 3228 3231 3233 3234 3235 3235 3235 3237 3240 3241 3242 3243 3244 3245 3246 3247 3248 3249 3249 3250 3251 3252 3253 3253 3254 3254 3255 3256 3256 3257 3257 3257 3258 3258 3258 3259 3259
3214 3216 3219 3222 3224 3227 3229 3230 3232 3234 3235 3234 3234 3236 3239 3240 3241 3242 3243 3244 3245 3246 3247 3248 3248 3249 3250 3251 3252 3252 3253 3254 3254 3255 3256 3256 3256 3257 3257 3257 3257 3258
3211 3214 3218 3221 3223 3225 3228 3229 3230 3231 3233 3233 3233 3234 3236 3237 3238 3239 3241 3242 3243 3243 3244 3245 3246 3247 3248 3249 3250 3251 3251 3252 3253 3253 3254 3255 3255 3255 3256 3256 3256 3256
3210 3214 3217 3220 3221 3223 3225 3227 3228 3229 3230 3231 3232 3232 3234 3235 3236 3237 3237 3239 3240 3241 3242 3243 3244 3245 3246 3247 3248 3249 3249 3250 3250 3251 3252 3253 3253 3253 3254 3254 3254 3254
3210 3213 3216 3217 3218 3220 3222 3224 3225 3227 3228 3229 3230 3231 3232 3233 3234 3235 3236 3236 3237 3238 3239 3240 3241 3242 3243 3244 3245 3246 3247 3247 3248 3249 3249 3250 3251 3251 3251 3252 3252 3252
3210 3212 3213 3215 3216 3218 3219 3221 3223 3225 3226 3227 3228 3229 3230 3231 3232 3233 3234 3235 3235 3236 3237 3238 3239 3240 3240 3241 3242 3243 3244 3245 3245 3246 3246 3247 3248 3249 3249 3249 3249 3250
3209 3211 3212 3213 3215 3216 3217 3218 3219 3221 3222 3224 3225 3227 3228 3229 3231 3231 3233 3233 3233 3234 3234 3235 3237 3238 3238 3239 3239 3240 3241 3241 3242 3243 3243 3244 3245 3245 3246 3247 3247 3247
3208 3210 3210 3211 3213 3214 3216 3217 3217 3217 3219 3221 3223 3224 3226 3227 3228 3229 3230 3231 3232 3232 3232 3233 3233 3235 3236 3236 3237 3237 3238 3238 3239 3239 3240 3241 3241 3242 3242 3243 3244 3244
3205 3207 3208 3209 3211 3213 3215 3215 3214 3214 3217 3218 3220 3222 3223 3224 3226 3227 3228 3228 3229 3230 3230 3231 3231 3231 3232 3233 3233 3234 3235 3235 3236 3236 3236 3237 3238 3238 3239 3239 3240 3241
3201 3203 3204 3206 3209 3211 3212 3211 3211 3212 3214 3216 3217 3218 3220 3221 3222 3223 3224 3225 3226 3227 3228 3229 3229 3230 3229 3229 3229 3230 3231 3231 3232 3232 3233 3233 3234 3235 3235 3236 3236 3236
3198 3198 3199 3202 3205 3206 3206 3207 3208 3210 3212 3213 3214 3215 3216 3217 3218 3220 3221 3222 3223 3224 3225 3226 3227 3227 3226 3226 3226 3227 3228 3228 3228 3228 3229 3229 3230 3231 3232 3232 3232 3233
3196 3196 3196 3198 3200 3201 3202 3203 3205 3207 3209 3210 3211 3212 3213 3214 3215 3216 3217 3218 3219 3220 3221 3221 3222 3222 3223 3224 3225 3225 3225 3225 3225 3225 3225 3226 3227 3228 3228 3229 3229 3229
3193 3194 3194 3195 3196 3198 3199 3200 3201 3203 3205 3206 3207 3208 3209 3211 3212 3213 3213 3214 3215 3216 3216 3216 3217 3219 3221 3223 3224 3223 3222 3222 3223 3223 3223 3224 3225 3226 3226 3226 3226 3227
3191 3192 3193 3193 3195 3196 3196 3196 3197 3199 3200 3201 3202 3203 3204 3206 3208 3208 3209 3210 3210 3211 3212 3213 3215 3218 3219 3220 3219 3218 3218 3218 3219 3219 3220 3221 3221 3221 3221 3222 3223 3223